Simultaneous Nadir Overpasses (SNOs) Predictions

Prediction of SNOs between GOES-16 and METOP-B Satellite Orbit:

Table of predicted SNOs for the next 14.0 days since TLE Epoch: 1/10/2025
Index Date Time (GOES-16) GOES-16 Lat,Lon METOP-B Lat,Lon Distance(km) Time Diff (sec)
1 01/11/2025 02:25:05 0.02, -75.16 -0.46, -77.37 250.78 80
2 01/12/2025 02:01:51 0.02, -75.16 0.64, -72.40 314.98 80
3 01/13/2025 14:20:50 -0.01, -75.20 0.38, -77.01 205.68 80
4 01/14/2025 14:02:55 -0.01, -75.21 -0.72, -72.04 360.81 80
5 01/16/2025 02:22:04 0.00, -75.18 -0.31, -76.69 171.29 80
6 01/17/2025 01:58:48 -0.00, -75.19 0.74, -71.71 395.74 80
7 01/18/2025 14:17:48 0.00, -75.25 0.26, -76.33 123.32 80
8 01/19/2025 13:59:53 0.00, -75.26 -0.85, -71.36 444.27 80
9 01/21/2025 02:19:01 -0.00, -75.25 -0.16, -76.01 86.30 80
10 01/22/2025 01:55:47 0.00, -75.27 0.96, -71.05 481.34 80
11 01/23/2025 14:14:45 -0.00, -75.33 0.10, -75.65 37.16 80
